Wind_Speed
15 16 17 18 18 20 22 23 24 24 24 23 22 21 20 19 18 17 17 16 16 16 16 15 15 15 14 14 14 13 13 13 12 11 10 9 8 7 7 8 8 8 7 7 7 6 6 6 6 6 6 6 6 5 5 4 4 4 5 5 6 6 6 6 6 5 5 5 5 6 6 6 6 6 6 6 5 5 4 4 3 3 3 3 3 3
17 17 17 17 18 19 21 22 23 23 23 22 21 20 19 18 17 17 16 16 16 16 16 16 16 16 15 15 15 14 13 13 12 11 10 8 7 6 6 6 7 7 7 7 7 7 7 7 7 7 7 7 7 7 6 6 6 6 7 7 7 7 7 8 8 8 8 8 8 8 7 7 7 7 6 5 4 4 4 4 4 4 3 3 3 3
16 16 17 17 18 19 20 21 21 21 21 21 20 19 18 17 17 17 16 16 17 18 18 17 17 17 16 16 15 14 13 13 12 10 9 8 7 6 6 7 7 8 8 7 7 7 7 7 7 7 7 7 7 8 8 8 9 9 10 10 10 10 10 10 10 10 9 9 9 9 9 8 8 7 6 5 5 5 5 5 5 5 4 4 3 2
14 15 16 16 17 18 19 20 20 19 19 19 19 18 18 17 17 17 17 18 19 20 19 19 18 17 17 16 15 14 13 12 11 10 9 8 8 7 7 7 8 8 8 8 7 7 7 7 7 8 8 8 8 8 8 9 10 11 11 11 11 11 11 11 11 10 10 10 10 10 9 9 8 8 7 7 6 6 6 5 5 5 5 4 3 2
13 14 15 16 16 17 18 18 18 18 18 18 18 17 17 17 18 18 18 20 21 21 20 19 18 18 17 17 15 13 11 11 10 10 9 9 8 8 8 8 8 8 8 7 7 7 8 8 8 7 7 7 7 8 9 10 11 11 11 11 11 11 11 11 11 11 11 11 11 11 10 10 9 9 8 8 8 7 7 6 6 5 5 4 4 3
12 13 14 15 16 17 17 18 19 19 18 18 18 18 18 18 18 19 20 21 22 22 20 19 18 18 18 17 16 13 11 9 9 10 10 9 9 9 8 8 8 7 7 7 7 7 7 7 7 7 6 6 6 7 9 10 11 11 11 11 11 11 11 11 11 11 11 11 11 11 11 10 10 10 10 9 9 9 8 7 7 6 5 5 5 4
11 13 14 15 16 17 17 18 19 20 20 19 19 19 19 19 20 20 21 21 21 21 20 19 18 17 17 17 16 15 12 10 9 9 10 9 9 8 8 8 8 7 7 7 7 7 6 6 6 6 6 6 6 7 8 9 10 10 10 10 10 11 11 11 11 11 12 11 11 11 11 11 11 11 11 11 11 11 10 9 8 7 6 5 5 5
11 13 15 16 16 16 17 18 19 20 21 20 20 20 21 21 21 21 21 21 20 19 18 18 17 17 17 17 16 16 15 12 11 10 10 10 9 8 8 7 7 7 8 8 7 7 6 6 6 5 5 5 6 7 7 8 9 10 11 11 11 11 11 11 11 11 11 11 11 11 11 11 11 11 11 11 11 11 11 11 10 9 7 6 5 5
12 14 16 17 18 17 16 17 18 20 21 21 20 20 21 21 22 21 21 20 19 18 18 17 17 17 16 16 16 16 16 14 12 11 11 11 10 9 9 8 8 7 7 8 7 7 7 6 6 6 6 6 7 7 8 9 10 11 11 11 11 11 11 11 10 10 10 10 10 11 11 11 11 11 11 11 11 11 11 11 10 10 9 7 6 5
13 15 16 17 18 17 16 16 18 20 21 22 21 21 21 21 22 21 20 20 19 19 18 17 17 17 17 16 16 16 16 15 14 13 12 11 11 11 10 10 9 8 7 7 7 7 7 7 7 7 7 7 8 9 9 10 11 11 11 11 11 11 11 10 10 10 10 10 10 10 10 10 10 10 10 10 10 10 10 10 10 10 10 9 8 6
13 15 15 15 16 16 17 17 18 20 22 22 22 21 21 22 22 21 20 20 20 20 19 19 18 18 17 16 16 16 16 15 15 14 13 13 13 12 12 11 10 9 8 6 6 7 7 8 8 8 9 9 9 9 10 11 11 11 11 11 11 10 10 10 10 9 9 9 9 9 9 10 10 10 10 10 10 10 10 10 10 10 10 10 9 8
12 14 14 14 15 15 16 17 18 20 21 21 19 18 20 22 23 22 20 20 20 21 20 20 20 19 19 18 16 16 15 15 15 14 14 14 14 13 13 12 12 11 10 9 9 9 9 10 10 10 10 11 11 10 10 11 11 11 11 10 10 10 10 9 9 9 9 9 9 9 9 10 10 10 10 10 10 10 10 10 10 10 10 10 10 9
12 13 13 14 14 15 15 16 17 19 20 21 19 17 18 21 23 23 20 20 21 22 22 21 20 20 20 19 18 16 16 15 15 15 14 14 14 14 13 12 12 12 12 12 12 12 11 11 11 11 12 12 12 12 12 12 11 11 11 10 10 9 9 9 8 8 8 8 9 9 9 10 10 10 9 9 9 9 9 9 9 9 9 9 10 9
12 12 13 13 13 15 16 17 17 18 20 21 20 19 19 22 23 22 19 18 19 21 22 21 20 19 19 19 18 17 16 16 16 15 15 15 15 15 14 13 13 13 13 13 13 13 12 12 12 12 12 13 13 13 13 13 12 12 11 11 10 10 9 9 8 8 8 8 9 9 10 10 10 8 7 7 7 7 7 7 7 7 8 8 9 9
13 13 12 12 12 14 16 18 19 19 19 21 21 21 20 20 22 21 19 17 18 20 20 20 19 18 17 17 18 18 17 17 16 16 16 16 15 15 14 13 13 13 14 14 14 13 13 12 12 12 12 13 13 14 14 14 13 13 13 12 11 10 10 9 9 9 9 9 9 10 10 10 8 7 6 6 6 6 6 6 7 7 7 7 8 8
14 13 12 12 13 14 17 18 18 18 18 20 21 20 18 19 21 21 19 18 18 18 18 16 15 14 15 17 18 18 17 17 16 16 16 16 15 15 14 14 13 14 14 14 14 14 13 13 13 13 13 13 13 14 14 14 14 14 13 12 12 11 10 10 9 9 9 9 10 10 10 9 7 6 6 6 6 6 6 6 6 6 7 7 7 8
14 14 13 12 12 14 16 18 19 18 18 19 20 20 19 20 21 22 20 19 18 17 16 14 10 8 10 13 17 19 19 18 17 16 16 16 16 16 15 14 14 14 14 13 14 14 14 14 13 13 13 13 14 14 14 14 14 13 13 12 12 11 10 10 10 9 9 9 10 10 9 8 6 6 6 6 6 5 5 5 6 6 6 7 7 8
14 15 14 12 12 14 16 18 18 19 19 20 20 21 21 20 21 21 21 20 18 17 16 16 13 8 6 7 11 16 21 19 18 17 17 17 17 16 16 15 14 14 13 13 13 13 13 14 14 14 14 13 13 13 13 13 13 12 12 12 12 11 11 10 10 10 10 9 10 9 8 7 6 6 6 6 5 5 5 5 6 6 6 7 7 7
15 16 15 14 14 15 16 18 19 20 20 20 21 21 20 20 20 20 21 20 19 18 17 16 16 14 8 5 8 14 19 20 19 18 18 18 18 17 17 16 15 14 13 13 12 12 13 13 13 13 13 13 13 13 13 13 12 12 12 12 12 12 11 11 10 10 10 10 9 9 8 7 6 6 6 6 6 5 5 6 6 6 7 7 7 7
15 16 16 15 15 15 16 17 18 19 20 21 21 20 20 20 20 20 21 20 20 19 18 18 17 16 12 8 7 11 16 18 19 20 19 19 18 18 17 17 16 15 14 14 13 13 13 13 13 13 13 13 13 13 13 13 13 12 12 12 12 12 11 11 10 10 10 9 9 9 8 7 7 7 7 6 6 6 6 6 7 7 8 8 8 7
12 13 13 14 15 15 15 16 16 16 17 18 19 20 20 20 20 20 21 21 20 20 19 18 18 17 14 10 7 8 12 15 18 20 20 19 18 18 18 17 17 16 15 15 14 13 13 13 13 13 13 13 13 13 13 13 13 13 12 12 12 11 11 10 10 10 9 9 9 9 8 7 7 7 7 7 7 7 7 7 7 8 8 8 8 8
8 8 8 9 11 13 13 13 12 12 14 16 17 18 19 20 20 20 21 21 21 20 19 18 17 17 15 12 9 7 9 12 16 18 18 17 17 17 18 17 17 17 16 15 14 14 14 14 14 14 14 14 14 14 14 14 14 13 12 12 11 11 10 10 9 9 9 9 9 9 8 8 8 7 7 7 7 7 7 7 7 7 8 8 8 8
4 4 4 5 7 8 9 10 10 10 11 13 15 17 18 19 20 20 21 21 20 20 19 19 18 17 16 13 10 8 8 10 13 15 15 14 13 14 16 16 16 16 16 15 15 14 14 14 14 14 15 15 15 15 15 15 14 13 13 12 12 11 10 10 9 9 9 9 9 9 9 8 8 8 8 8 8 8 8 8 8 8 8 8 8 8
4 4 4 4 5 5 5 6 7 7 8 10 12 14 15 16 16 17 18 19 19 19 19 18 17 15 15 13 11 10 9 10 12 14 14 13 12 12 13 14 14 14 14 14 14 14 14 14 15 15 15 15 16 16 15 15 15 14 13 12 12 11 11 10 10 9 10 10 10 10 10 9 9 9 9 9 8 8 8 9 9 9 9 9 9 9
3 3 3 4 4 5 5 5 5 5 6 7 9 11 12 13 13 14 14 15 17 17 17 16 14 12 12 13 12 11 12 11 12 13 14 11 9 10 11 12 12 12 12 13 13 13 14 14 15 15 15 15 15 15 15 15 14 14 13 12 12 11 10 10 10 10 10 10 10 10 10 10 10 10 10 10 9 9 9 9 9 9 9 9 10 10
2 2 2 3 3 4 4 4 4 4 4 5 6 8 10 11 12 13 13 15 16 17 16 14 12 11 12 12 12 13 13 13 13 13 13 9 7 7 10 11 11 11 11 12 12 13 13 14 14 14 14 14 14 14 14 13 13 13 12 12 11 11 10 10 11 11 11 11 11 10 10 10 10 10 10 10 10 10 9 9 9 9 9 9 9 10
2 2 2 2 3 3 3 4 4 4 4 4 4 6 8 9 11 12 13 15 16 17 16 13 11 11 12 11 11 12 15 15 14 14 14 11 7 6 8 10 11 10 10 11 12 12 12 13 13 13 13 13 13 13 13 12 12 11 11 10 10 10 10 11 11 11 11 11 10 10 10 10 10 10 10 10 10 10 10 10 9 9 9 9 10 10
2 2 2 3 3 3 4 4 4 4 4 4 4 5 6 8 10 12 14 14 15 16 16 14 11 9 11 10 10 11 14 15 15 15 14 12 8 5 8 9 9 9 9 10 11 12 12 12 12 12 13 13 13 12 12 12 12 11 11 10 10 10 10 11 11 11 11 10 10 10 10 10 10 10 10 10 11 10 10 10 10 9 9 10 11 11
3 2 2 3 3 4 4 4 4 4 4 5 5 5 6 7 8 10 11 11 13 15 16 16 13 10 10 11 10 10 12 15 16 16 15 13 9 7 8 8 9 9 8 8 9 10 12 13 13 13 13 13 12 12 11 11 12 12 12 11 11 11 10 10 10 10 10 10 10 9 9 9 10 10 10 10 11 11 11 10 10 10 10 11 12 12
3 3 2 2 2 3 4 5 5 5 5 5 6 6 6 6 6 6 6 8 11 14 16 16 16 13 9 7 6 7 9 13 16 17 17 14 11 9 10 9 9 9 8 6 4 5 7 10 13 14 13 13 12 11 11 11 11 12 12 12 11 11 10 10 9 9 9 8 8 9 9 9 10 10 10 11 11 11 11 11 11 11 12 12 12 12
3 2 1 1 1 2 4 5 6 6 6 6 6 7 7 7 7 6 5 6 8 10 13 15 16 15 12 7 3 2 5 8 12 15 16 16 14 11 11 9 10 10 9 7 4 2 2 4 8 11 12 12 12 11 11 11 11 12 12 11 11 10 10 10 9 9 9 8 8 8 9 9 10 10 11 11 11 11 11 11 11 12 13 13 13 13
2 1 1 0 1 1 3 4 5 5 5 6 6 7 7 7 7 6 6 5 5 7 9 12 14 15 14 12 9 6 4 4 7 10 12 14 13 12 12 10 10 11 11 11 7 3 1 1 3 6 9 11 11 11 11 11 12 12 11 11 10 10 9 9 9 10 10 10 10 10 9 9 10 10 11 11 11 11 11 11 12 12 13 14 15 15
2 2 1 1 1 2 3 3 4 4 4 5 5 6 6 6 6 6 6 6 6 6 7 8 10 12 13 14 14 12 8 6 5 6 8 10 10 10 12 12 12 12 13 13 11 7 3 1 1 3 6 9 10 11 11 12 12 12 11 11 10 9 9 9 9 10 11 12 12 12 12 11 11 11 11 11 11 11 11 11 12 13 14 15 15 16
2 2 2 2 3 3 3 3 4 4 4 4 5 5 5 5 5 5 6 6 6 7 8 9 9 10 11 13 14 14 13 10 8 7 7 8 9 9 11 12 13 13 13 13 12 9 4 3 3 3 4 8 10 11 12 13 13 12 12 11 10 9 9 9 10 11 12 13 13 14 14 14 13 13 13 13 12 12 12 12 12 12 14 15 15 16
3 4 4 4 4 4 4 5 5 5 5 5 6 6 6 6 6 6 6 7 7 8 9 10 10 10 10 11 12 12 11 11 10 9 8 8 9 10 10 12 13 14 14 12 10 7 5 5 5 5 4 6 9 11 13 13 14 13 12 12 11 10 9 9 10 11 12 13 14 15 15 15 15 15 15 15 15 15 14 14 13 12 12 13 14 14
4 4 5 5 5 5 6 6 6 6 7 7 7 7 7 7 7 7 7 7 7 8 8 9 10 10 11 11 11 10 9 9 9 9 8 8 10 11 10 10 11 13 13 13 11 7 5 5 6 7 5 5 6 8 12 14 15 14 14 13 12 11 11 10 10 11 12 13 14 15 16 16 16 16 16 16 16 16 16 15 15 13 12 12 13 13
5 5 5 6 6 6 7 7 8 8 8 8 8 8 8 8 8 8 7 7 7 7 7 8 8 9 10 10 10 10 10 9 9 9 9 8 9 11 12 10 10 11 12 13 12 10 8 6 6 7 7 6 4 5 7 12 15 15 15 15 14 13 12 11 10 11 11 12 13 15 16 17 17 17 17 17 17 17 17 17 17 16 15 14 13 13
6 6 6 6 7 7 8 8 9 9 9 9 9 9 9 8 8 7 7 7 7 7 7 7 7 7 8 8 9 9 10 10 10 10 10 9 9 10 12 11 10 10 10 11 12 12 10 7 6 5 5 6 7 6 6 9 12 14 15 15 14 13 12 11 11 11 11 12 13 14 15 16 17 18 18 18 18 18 18 18 18 17 17 16 15 15
8 8 8 8 8 8 8 9 9 9 9 10 10 10 9 9 8 8 7 7 7 7 7 7 7 7 7 7 7 8 8 9 10 10 10 10 10 11 12 12 12 11 10 10 11 11 11 10 8 6 5 5 6 7 8 8 10 12 13 14 14 13 13 12 11 11 11 12 12 13 15 16 17 18 18 19 19 19 19 18 18 18 18 18 17 17
10 9 9 8 8 8 8 9 9 9 9 10 10 10 10 9 9 8 8 8 8 8 9 9 9 9 8 8 7 7 8 8 9 10 10 11 11 12 12 13 13 13 12 11 11 12 12 12 11 10 8 6 4 5 7 8 9 10 11 12 12 12 13 12 12 12 12 13 13 14 15 16 17 18 19 19 19 19 19 19 19 19 19 19 18 18
10 10 9 8 7 7 7 8 8 8 9 9 10 10 10 10 10 10 9 9 10 10 10 10 10 10 10 10 9 9 8 8 9 9 10 10 11 12 13 14 14 14 14 14 14 14 14 14 14 14 13 11 9 7 7 8 9 10 11 12 12 12 12 13 14 14 14 15 15 15 16 17 18 18 19 20 20 20 20 20 21 21 21 20 20 20
9 9 9 8 7 7 7 7 7 8 8 9 10 10 11 11 11 11 11 11 11 11 11 11 12 12 12 12 11 11 10 10 10 10 10 10 11 12 13 14 15 16 16 16 16 16 16 16 16 16 16 15 14 12 11 11 11 11 12 13 13 12 12 13 14 14 15 15 16 16 17 17 18 19 19 20 20 21 21 21 22 22 22 22 21 21
10 9 9 8 8 8 8 8 8 8 8 9 9 10 11 11 12 12 12 12 12 11 11 12 12 12 13 13 13 13 12 12 11 11 11 11 11 12 13 14 15 16 17 17 17 17 18 18 18 18 18 17 17 17 16 15 15 15 15 15 15 12 8 9 11 11 11 12 12 13 14 15 16 17 18 19 19 20 21 21 22 22 22 22 22 22
11 11 10 10 10 10 10 10 10 9 9 9 9 10 10 11 12 12 13 13 13 12 12 11 12 12 14 14 14 14 14 13 13 13 12 12 12 13 13 14 15 16 17 18 18 18 18 19 19 20 19 18 18 19 19 19 19 19 19 19 19 17 14 12 12 11 10 10 10 10 10 11 12 13 15 17 18 19 19 20 21 21 22 22 22 22
13 13 13 13 13 13 12 12 12 11 11 10 10 10 10 11 12 12 13 13 13 13 12 12 11 11 12 13 14 14 14 14 14 13 13 13 13 14 14 15 16 17 18 18 19 19 18 18 19 19 19 19 20 21 21 21 22 21 21 21 21 21 22 20 18 17 15 14 12 11 10 11 11 13 14 16 17 18 18 19 19 20 21 22 22 22
16 16 15 15 15 15 14 14 14 13 13 12 12 11 11 11 11 12 13 13 13 13 13 12 12 12 11 11 12 12 12 13 13 13 12 12 12 13 14 15 16 17 18 19 19 20 20 20 19 19 19 19 21 22 23 23 23 23 23 23 23 23 23 22 22 20 19 18 16 15 14 14 14 15 16 17 18 18 19 19 20 20 21 21 22 22
18 17 17 17 16 16 16 16 16 15 15 14 14 13 12 12 12 12 13 14 14 13 13 14 14 15 15 14 13 12 12 12 12 12 12 11 10 11 12 13 15 16 17 18 19 20 20 21 21 20 19 19 19 21 24 24 24 24 24 24 23 23 23 24 23 21 19 18 18 17 16 16 17 18 19 19 19 20 20 20 21 21 21 22 22 22
19 18 18 18 17 17 17 17 17 17 17 16 15 15 14 13 13 13 13 14 14 14 14 15 16 17 17 17 17 16 15 15 14 14 13 12 11 10 10 11 13 14 16 17 18 19 20 21 22 22 22 22 21 20 22 24 25 25 25 24 24 23 24 24 23 21 19 18 17 17 16 17 17 18 18 19 20 21 21 21 21 21 21 21 22 22
19 19 19 19 19 19 19 19 19 18 18 18 17 17 16 15 14 14 14 14 14 15 15 16 17 18 18 19 19 19 18 18 18 17 15 14 13 12 11 11 11 13 14 15 17 18 19 20 22 23 24 25 25 24 23 24 25 25 24 24 24 24 24 24 23 21 19 18 17 16 16 16 16 17 17 18 20 21 22 21 20 20 20 20 21 21
21 20 20 20 20 20 20 20 20 20 20 20 19 18 18 17 16 15 14 14 14 15 16 17 18 18 19 20 20 20 20 19 19 18 17 16 14 13 12 11 11 12 13 14 15 15 17 18 21 24 25 27 27 27 26 26 25 25 24 25 25 25 24 24 23 21 20 18 17 16 16 16 16 16 16 18 19 21 22 22 21 20 18 18 19 20
22 22 22 22 22 22 22 21 21 21 21 21 20 20 19 18 17 16 16 15 15 16 17 17 18 19 19 20 20 20 20 20 20 19 19 17 16 14 13 13 12 12 11 11 10 10 10 11 13 17 23 26 27 27 27 27 25 24 23 25 26 25 25 24 23 21 20 19 18 17 16 16 16 16 17 18 18 19 21 22 22 19 17 16 17 18
Wind_Direction
247 244 242 240 241 243 242 242 236 229 227 227 227 227 229 230 231 234 238 238 238 236 233 229 222 216 211 208 207 206 207 207 207 207 208 211 214 220 224 227 227 226 223 220 215 209 202 195 188 182 176 170 167 168 174 178 181 179 173 169 169 166 158 157 160 167 174 173 171 172 175 181 188 195 200 204 207 209 210 211 209 204 201 203 199 183
242 239 238 240 242 242 239 239 235 228 225 225 227 228 229 228 230 232 233 229 225 222 219 216 212 207 202 200 200 201 204 204 205 207 210 212 212 209 208 206 206 205 203 202 200 198 196 193 190 185 180 174 169 165 163 162 162 161 158 155 160 164 157 150 147 151 158 167 173 177 181 187 191 194 195 195 195 194 192 191 189 188 187 191 192 182
238 235 236 241 242 238 231 230 228 226 225 226 228 229 229 229 229 228 223 215 211 209 207 205 203 200 197 196 197 198 200 202 203 205 209 209 208 202 192 186 186 189 189 190 192 194 195 195 193 190 184 178 171 165 162 161 159 156 155 156 161 162 159 158 159 162 167 176 181 186 189 192 195 194 192 189 186 185 186 189 191 192 192 195 196 188
235 232 234 238 236 230 225 222 221 221 222 225 227 229 229 227 225 221 216 207 203 202 200 200 200 199 196 195 194 195 198 200 202 204 205 204 202 195 188 184 183 182 184 187 190 194 196 196 194 190 184 178 174 172 171 169 165 163 163 166 168 170 172 175 179 184 189 192 194 196 198 199 199 198 197 196 195 194 195 198 201 203 205 207 207 202
232 231 231 229 222 217 220 220 218 217 219 221 222 223 223 221 218 214 209 204 201 199 198 199 200 200 198 196 194 195 198 202 202 201 200 199 194 190 190 189 186 183 184 186 190 193 196 195 193 188 184 181 181 180 178 174 171 171 174 177 179 181 184 188 192 196 199 202 204 204 205 206 206 207 208 208 208 208 208 209 212 215 218 222 222 218
228 226 227 222 214 211 215 216 216 215 213 214 215 215 213 213 211 207 202 199 198 198 198 200 201 202 202 199 196 194 196 198 199 199 199 197 193 191 192 192 189 186 185 185 188 192 196 197 197 195 194 194 194 191 187 182 179 179 181 184 187 190 194 197 201 204 206 209 211 212 214 216 219 221 222 222 222 222 221 221 222 225 228 233 234 230
220 216 216 214 213 213 214 214 214 212 208 206 205 206 206 205 203 200 198 196 196 197 199 201 203 204 205 204 201 197 194 192 191 192 192 191 190 191 192 191 190 188 189 190 193 197 201 205 208 209 209 208 205 200 196 194 191 190 190 191 193 197 201 204 208 211 213 216 219 222 225 228 231 234 235 236 236 235 234 233 232 232 233 236 237 234
208 206 206 204 206 210 211 212 212 210 208 204 201 198 198 198 198 197 196 197 197 198 198 200 201 203 204 204 203 202 200 197 194 189 183 179 179 183 187 190 192 193 196 199 203 206 206 208 208 208 207 209 206 201 197 198 200 201 201 201 202 205 208 212 215 218 221 226 229 233 236 239 241 243 244 245 245 244 243 241 239 236 235 233 233 231
206 199 201 203 203 201 202 207 210 209 206 204 201 196 193 192 193 195 197 198 200 201 201 199 198 199 200 201 203 204 204 205 202 195 185 179 179 183 188 192 196 201 205 209 211 211 205 202 201 201 199 204 205 201 195 198 204 209 211 211 212 214 217 220 224 228 233 237 240 243 245 246 247 248 249 249 249 248 247 245 242 238 234 229 226 225
213 202 199 203 205 204 199 200 204 206 203 203 202 200 196 192 191 192 195 199 202 204 204 202 199 197 197 199 202 204 205 207 207 202 193 190 192 197 201 204 206 207 209 214 215 211 203 198 198 198 197 199 201 200 199 203 209 213 216 218 220 223 226 230 235 240 244 247 249 250 251 252 253 254 254 254 253 252 250 247 244 239 234 227 221 217
208 203 198 198 202 206 204 201 201 201 199 200 201 202 201 197 194 191 191 196 200 202 203 204 203 200 198 199 202 205 206 207 207 205 202 202 205 209 213 218 218 212 202 199 201 200 195 194 194 194 193 193 195 198 202 208 213 217 220 223 226 230 235 240 244 249 252 255 256 257 258 259 260 261 262 262 260 257 254 250 246 241 236 228 220 215
200 197 196 195 195 198 201 201 199 197 195 195 197 200 202 201 200 197 193 194 195 197 199 202 204 204 203 204 206 208 209 208 207 207 209 213 216 218 221 225 225 218 205 197 193 192 190 191 191 191 192 191 191 194 201 209 215 220 225 229 234 239 244 248 252 255 257 259 260 262 263 265 268 269 270 268 265 260 256 251 246 241 236 229 219 212
202 196 193 193 193 193 194 194 192 191 192 193 195 197 200 201 201 200 198 197 196 196 198 199 202 205 208 210 212 213 213 213 212 213 216 221 226 228 227 226 224 220 214 208 204 202 201 201 201 201 199 198 197 200 205 211 218 223 229 234 239 244 248 251 254 256 257 259 261 264 267 270 273 274 272 268 263 258 252 246 240 235 231 226 217 208
196 192 189 188 190 192 193 191 188 189 193 197 199 200 202 201 200 198 198 197 198 199 199 199 200 203 207 210 213 216 217 217 218 219 221 225 229 231 230 226 223 220 218 215 214 213 213 213 213 212 211 209 210 212 216 221 225 230 234 239 243 246 249 251 252 253 255 257 261 265 269 273 274 273 266 260 255 250 243 234 227 222 220 217 210 202
187 185 183 188 193 195 196 195 194 196 199 201 202 203 203 201 199 197 195 195 197 199 199 199 201 204 205 207 211 215 217 219 220 221 222 224 227 228 228 225 222 220 219 219 219 221 223 223 223 222 221 221 221 224 227 231 235 239 242 245 246 248 248 249 249 251 253 256 260 265 270 273 271 262 250 245 243 237 228 219 212 209 208 205 200 196
192 188 188 195 199 201 202 201 201 201 202 204 204 204 203 200 198 198 197 196 196 196 195 196 200 207 212 212 213 214 217 219 221 222 222 220 221 224 223 220 219 218 220 221 223 226 229 230 231 231 231 231 232 233 236 239 242 244 246 248 248 247 247 247 248 249 252 255 259 264 269 270 262 245 234 234 232 226 216 208 203 201 200 198 195 192
198 196 197 200 203 206 208 206 204 204 205 206 206 206 206 203 201 199 199 198 196 193 194 193 194 204 218 220 219 217 217 218 219 221 221 217 217 219 220 218 217 218 220 222 225 229 233 235 236 237 238 238 239 240 242 243 245 246 247 247 247 247 246 246 247 248 250 252 256 260 265 264 250 233 228 227 224 216 207 199 195 194 194 193 192 191
203 203 204 206 207 209 210 207 207 208 209 208 208 209 209 209 207 204 202 201 197 195 196 199 199 197 199 212 220 220 217 216 216 218 217 215 216 217 218 218 219 221 222 224 227 231 235 238 240 241 241 242 242 242 244 245 246 247 247 247 247 247 247 247 246 246 247 248 251 256 260 255 242 230 226 221 216 207 197 191 189 189 189 190 190 191
211 211 210 211 214 215 214 211 211 211 212 211 211 210 209 210 210 208 206 205 203 200 200 201 205 207 203 204 214 216 215 214 214 214 214 214 215 218 219 220 222 225 228 230 232 234 237 240 242 243 243 243 243 243 245 247 248 249 249 250 250 250 249 248 246 244 243 244 247 251 253 247 236 227 223 218 211 201 194 189 187 187 187 187 188 190
223 222 221 221 222 222 221 222 223 223 220 220 217 213 209 210 211 210 210 209 208 207 206 205 206 208 209 216 220 217 213 212 212 213 214 215 217 220 221 223 227 231 234 237 239 240 240 242 243 244 244 244 244 246 247 249 250 251 252 253 253 252 251 248 244 241 240 240 243 246 247 241 232 226 222 217 210 202 195 191 189 188 188 186 186 188
242 240 241 241 237 233 233 238 241 240 235 230 223 215 211 211 211 211 212 212 211 211 211 209 208 208 209 217 225 220 212 209 209 211 214 216 220 224 226 228 232 236 239 242 244 245 244 244 244 245 245 246 248 249 251 252 253 254 254 254 254 252 249 246 242 239 237 237 240 242 241 235 229 225 222 218 212 204 198 195 194 193 191 189 188 189
271 274 273 266 258 254 256 260 259 254 249 238 226 217 215 214 212 212 214 213 211 210 209 209 209 210 210 216 221 219 212 209 209 211 214 215 220 227 231 233 236 240 243 246 247 247 247 246 246 246 247 249 251 252 253 254 253 253 253 252 251 249 246 242 239 237 236 235 237 239 238 232 227 223 221 218 214 209 203 201 200 199 197 195 193 194
282 287 279 266 262 263 265 267 266 262 256 245 235 230 230 226 222 220 219 217 213 210 210 210 211 212 211 214 218 219 213 207 208 210 212 214 220 228 234 236 239 242 246 247 247 247 248 247 247 248 250 251 252 253 253 253 252 251 250 249 248 246 243 239 236 234 234 234 235 236 235 230 225 222 220 219 216 212 208 206 205 204 203 201 199 199
262 264 254 240 233 233 240 249 254 255 253 247 242 240 241 239 237 234 231 225 219 215 212 211 210 211 213 217 220 221 216 207 204 206 211 217 223 228 233 236 239 243 246 247 247 246 247 248 248 249 250 251 252 252 252 251 250 249 248 248 246 245 241 237 233 232 232 232 234 235 234 229 225 222 221 221 220 216 211 208 207 206 205 204 202 201
268 267 254 232 215 206 205 212 224 232 236 236 233 231 231 233 234 234 231 225 219 213 209 206 204 207 216 221 222 222 219 212 208 207 209 216 224 230 235 237 239 242 246 247 247 246 246 247 248 249 250 250 250 250 250 249 249 248 248 247 246 243 239 235 232 231 231 232 234 236 235 230 225 222 221 221 221 219 215 212 209 208 207 206 205 203
281 274 259 237 216 203 198 199 203 205 210 215 217 217 218 220 221 220 217 213 210 206 202 197 198 204 212 217 219 220 220 216 214 212 211 213 220 231 239 241 242 243 245 247 247 246 245 245 246 247 247 247 247 248 248 248 248 248 248 246 244 240 236 232 230 230 231 233 235 236 235 229 224 221 220 220 219 219 217 215 212 210 209 209 209 208
264 255 242 227 212 202 197 196 192 189 185 188 195 202 206 209 210 207 204 205 206 203 196 192 197 207 210 214 217 220 222 220 218 217 217 217 222 234 240 243 244 244 244 246 246 246 244 243 244 244 244 245 246 246 246 245 244 243 241 239 237 235 232 230 230 230 230 231 233 234 232 225 220 219 218 217 216 216 216 215 214 213 211 211 211 211
256 243 226 212 202 196 193 190 186 180 176 176 182 193 202 208 207 205 206 209 209 205 199 197 200 206 210 214 219 224 225 223 221 221 223 220 223 237 237 241 243 243 241 242 245 246 244 242 242 242 242 244 245 245 244 241 237 234 230 226 225 226 228 229 230 229 229 230 230 230 226 220 215 214 215 214 214 214 214 214 213 212 212 213 214 214
283 269 247 224 208 196 189 183 177 174 176 180 187 195 204 213 219 222 223 219 213 206 202 203 204 208 214 219 225 231 231 228 226 226 226 221 224 236 236 236 238 238 235 238 245 248 245 243 241 241 241 243 244 244 241 237 233 229 224 221 219 220 223 225 227 228 228 227 225 223 219 215 212 211 212 212 212 213 213 212 211 211 212 215 217 217
308 305 289 260 224 205 192 179 168 167 176 186 191 194 198 207 221 237 245 236 222 213 207 208 210 212 215 223 233 241 240 233 230 230 228 222 223 232 236 233 231 230 225 222 232 246 245 242 239 237 238 239 240 239 235 231 227 223 221 221 221 222 222 222 222 222 222 222 220 217 215 212 211 210 210 210 211 213 213 212 212 214 215 217 219 221
311 315 316 298 229 206 198 186 177 175 181 188 191 191 194 201 208 216 227 234 231 225 220 219 219 219 217 219 218 239 249 232 229 230 229 223 224 231 234 227 224 224 220 206 200 216 239 232 231 230 229 230 231 229 225 221 218 216 216 218 221 224 225 224 221 216 210 210 213 216 215 214 213 212 211 211 212 213 213 212 214 218 221 220 221 223
298 292 265 176 170 183 189 191 191 191 192 194 194 195 200 205 210 213 215 217 223 229 232 234 233 231 228 226 221 221 243 242 234 230 228 221 223 230 232 224 218 218 219 211 208 209 186 179 213 220 217 217 217 216 214 212 210 210 211 214 218 223 225 227 225 218 208 203 203 207 211 214 216 216 216 215 215 215 215 213 214 219 224 224 224 226
260 247 223 200 187 187 188 192 198 203 205 205 204 206 211 215 219 223 224 222 221 224 230 237 240 240 239 237 235 235 242 254 255 242 231 222 220 224 228 223 217 215 217 215 218 225 231 213 208 213 211 209 207 206 207 206 206 206 208 212 217 222 227 229 229 224 216 209 205 204 205 207 210 212 214 216 216 217 217 215 216 220 225 227 227 228
235 226 217 210 203 203 207 211 215 219 223 224 225 227 229 233 236 239 240 241 239 238 239 239 240 241 242 243 243 243 244 250 254 253 243 228 220 219 224 221 217 214 213 214 218 225 243 237 220 208 209 209 207 205 205 205 206 207 209 214 220 227 232 233 232 229 224 219 214 210 209 208 208 209 210 210 211 212 213 213 215 220 227 230 231 231
231 227 223 220 218 216 219 223 229 235 239 241 243 246 250 254 258 261 262 261 259 256 252 249 246 244 243 245 245 245 248 250 251 251 249 238 227 223 225 223 221 218 213 212 213 217 226 224 216 206 202 208 211 212 211 210 210 212 215 221 229 237 242 240 236 232 228 224 222 219 217 215 213 213 213 212 212 211 212 210 211 217 227 233 236 237
235 231 230 230 229 228 227 229 234 240 244 248 252 256 261 265 269 272 272 272 269 266 261 256 251 248 245 245 244 243 245 248 248 247 245 241 232 227 225 226 226 223 217 213 211 210 211 212 213 211 207 202 209 216 218 218 218 219 222 229 236 244 247 245 240 234 229 227 226 224 223 222 221 220 219 219 218 218 217 215 213 214 220 230 238 241
245 243 243 243 242 240 238 240 242 245 248 252 257 262 266 270 273 275 276 274 272 268 263 257 252 249 247 246 245 242 239 239 241 241 238 235 231 227 226 228 230 228 222 218 216 215 215 214 216 219 219 213 208 211 219 221 223 225 228 233 239 244 246 244 239 234 230 228 228 228 228 227 227 226 226 226 226 226 226 225 223 220 219 222 229 236
258 258 260 261 261 260 257 255 255 255 256 257 261 265 269 271 273 275 275 274 271 265 258 253 249 248 247 247 246 243 240 239 239 239 235 231 227 226 228 230 231 231 228 227 226 225 222 221 220 220 222 223 222 222 222 222 223 225 229 233 237 239 239 237 233 231 230 230 230 231 231 231 230 231 231 232 232 233 233 233 233 232 230 226 226 229
267 271 276 279 281 281 279 275 272 269 266 263 263 264 267 269 270 272 273 272 269 263 256 249 246 245 245 246 246 245 244 243 243 241 238 232 228 226 228 230 232 233 231 231 231 231 230 228 225 223 223 225 227 229 230 228 224 223 224 227 230 232 231 229 227 228 230 232 233 234 234 234 234 234 234 235 235 236 236 236 237 238 237 235 232 231
274 280 287 292 296 296 294 290 286 281 275 270 266 264 264 264 265 267 269 269 267 264 258 252 248 246 246 247 247 247 246 246 246 245 242 237 233 229 228 229 232 234 234 234 233 233 234 234 233 231 229 230 230 228 228 228 224 220 218 217 220 223 225 225 227 230 234 237 238 238 238 238 237 237 237 237 237 237 238 238 239 239 240 239 238 236
279 285 292 299 302 302 300 297 292 285 279 274 269 265 263 263 264 265 267 268 267 264 260 255 251 249 249 248 248 248 248 249 250 249 247 243 239 235 232 231 231 233 235 236 236 237 237 238 238 238 236 236 236 237 234 229 225 221 217 214 215 220 227 233 237 240 242 244 244 243 242 241 241 240 240 240 240 240 240 239 239 240 241 241 241 240
282 286 292 297 299 299 297 295 291 287 281 276 272 268 265 264 264 266 267 269 268 267 263 258 254 252 250 250 249 249 250 251 252 252 252 250 246 242 238 235 234 234 235 236 238 239 239 240 241 242 242 241 240 241 241 237 233 229 226 224 227 235 244 245 245 246 248 248 247 246 244 243 242 242 242 241 241 240 240 240 240 240 241 242 243 243
281 285 289 290 290 290 291 293 293 293 289 283 277 271 267 265 264 265 267 268 269 268 266 262 257 254 253 251 251 251 251 252 253 255 256 255 253 250 245 241 239 237 237 238 239 240 240 241 242 243 244 245 245 245 244 243 241 238 236 237 237 239 247 248 247 246 245 246 245 244 243 242 241 240 240 239 239 239 239 239 240 241 241 242 243 244
281 282 283 283 284 285 287 289 292 294 295 291 286 280 273 267 265 264 265 266 267 267 265 262 259 256 254 253 253 252 252 252 254 255 258 258 258 255 251 247 244 241 240 240 240 241 242 243 243 244 245 246 247 248 248 247 246 245 244 244 244 243 244 248 251 251 250 248 247 245 242 240 238 238 238 237 237 237 238 239 240 241 242 243 243 244
277 277 278 279 280 281 281 284 287 291 292 293 292 288 281 273 267 264 263 263 263 264 263 260 257 253 250 251 252 253 254 255 255 256 258 259 259 257 254 250 246 244 243 242 243 243 244 245 246 247 248 248 248 248 249 249 249 249 249 250 250 250 250 251 253 255 255 255 253 251 248 245 243 241 240 239 238 238 238 239 240 241 243 244 244 245
272 272 273 275 277 279 281 284 285 286 287 289 291 291 287 279 271 265 262 261 261 260 260 258 254 249 245 247 249 251 252 255 258 260 261 262 261 258 255 251 247 245 243 243 244 245 246 247 248 249 250 250 250 250 250 250 250 250 251 253 254 255 256 256 256 255 255 255 255 253 251 250 249 248 247 246 244 243 242 242 242 243 245 246 246 247
269 269 270 273 276 279 282 283 282 281 282 284 288 291 290 285 276 269 263 260 258 258 257 256 254 250 247 246 247 248 248 252 257 263 268 269 267 262 256 251 247 245 243 243 243 244 245 246 248 248 248 248 249 251 251 251 250 250 251 253 255 256 257 258 258 256 256 256 255 254 251 251 251 251 253 254 253 251 248 246 245 245 246 247 248 249
269 269 270 272 274 276 277 278 278 278 278 280 285 289 290 287 281 273 266 261 258 256 255 254 253 252 251 251 251 252 253 254 257 262 268 271 272 268 261 253 247 244 243 242 242 243 244 244 245 245 245 244 244 247 250 251 251 252 253 254 255 255 256 259 260 259 258 257 255 253 251 250 251 253 256 258 259 258 254 251 248 247 247 247 249 250
270 269 270 271 271 272 273 275 275 275 276 278 282 285 287 287 284 277 271 265 260 256 255 253 252 251 251 251 253 255 256 257 259 261 263 266 268 268 263 255 248 244 242 242 243 244 245 245 245 244 243 243 243 244 248 250 252 253 254 255 255 255 256 259 260 261 260 258 255 253 251 251 251 253 256 259 261 261 259 255 251 248 247 247 248 249
271 271 270 270 269 269 271 273 273 273 274 277 279 282 285 285 284 280 274 268 262 258 256 254 253 251 250 251 253 254 255 256 257 259 260 262 263 263 260 255 249 244 244 244 246 249 252 254 253 250 247 245 244 244 245 248 250 252 253 253 253 254 255 258 259 260 260 259 257 254 253 252 252 253 253 255 258 261 261 259 255 250 247 246 247 248
271 272 271 270 269 269 271 272 272 272 274 276 278 280 281 281 280 278 274 269 263 259 257 255 254 251 249 250 252 254 254 255 256 257 259 260 261 260 258 253 248 243 240 240 246 254 261 264 264 262 257 251 248 245 244 244 245 246 247 250 252 253 254 256 258 259 260 259 258 256 255 253 251 250 249 250 252 257 260 261 258 254 249 246 245 246
Height
807 807 808 808 809 809 809 809 810 810 811 811 812 813 813 814 815 816 817 818 818 819 819 819 820 820 820 821 821 822 822 823 823 824 824 825 825 826 827 827 828 828 828 829 829 829 829 829 830 830 831 831 831 832 832 833 833 833 834 834 835 836 836 836 837 837 837 838 838 839 839 839 839 839 839 840 840 840 840 841 841 841 842 842 842 842
805 806 806 807 807 808 808 808 809 809 810 810 811 812 813 813 814 815 816 817 817 818 818 819 819 819 819 820 820 821 821 822 822 823 824 824 825 825 826 827 827 828 828 828 828 829 829 829 829 830 830 831 831 831 832 832 833 833 834 834 835 835 836 836 836 836 837 837 838 838 838 838 839 839 839 839 840 840 840 840 841 841 841 842 842 842
803 804 804 805 806 807 807 807 808 808 809 810 810 811 812 813 814 814 815 816 816 817 817 818 818 818 819 819 820 820 820 821 822 822 823 824 824 825 826 826 827 827 827 828 828 828 829 829 829 830 830 830 831 831 831 832 832 833 833 834 834 835 835 835 835 835 836 836 836 837 837 838 838 838 839 839 839 839 840 840 840 840 841 841 841 841
802 803 803 804 805 805 806 806 807 808 809 809 810 811 812 812 813 813 814 815 815 816 816 817 817 818 818 819 819 819 820 820 821 822 823 823 824 824 825 826 826 827 827 827 828 828 828 829 829 829 830 830 830 831 831 831 832 832 833 833 833 834 834 834 834 835 835 835 836 836 837 837 837 838 838 838 839 839 839 839 839 840 840 840 840 840
801 802 802 803 804 804 805 806 807 807 808 809 810 810 811 811 812 813 813 814 814 815 815 816 816 817 817 818 818 819 819 820 821 821 822 823 823 824 825 825 826 826 827 827 827 828 828 828 829 829 829 830 830 830 831 831 832 832 832 833 833 833 833 834 834 834 834 835 835 835 836 836 837 837 837 837 838 838 838 839 839 839 839 839 839 839
800 801 801 802 803 804 804 805 806 807 808 808 809 809 810 811 811 812 813 813 814 814 814 815 816 816 817 817 818 819 819 820 820 821 821 822 823 824 824 825 825 826 826 827 827 827 828 828 828 829 829 829 830 830 830 831 831 831 832 832 832 833 833 833 833 834 834 834 834 835 835 835 836 836 836 837 837 837 838 838 838 838 839 839 839 839
799 800 800 801 802 803 804 804 805 806 807 808 808 809 809 810 811 811 812 813 813 814 814 814 815 815 816 817 817 818 819 819 820 820 821 822 822 823 824 824 825 825 826 826 827 827 827 828 828 828 829 829 829 830 830 830 831 831 831 832 832 832 832 832 833 833 833 834 834 834 834 835 835 835 836 836 836 836 837 837 837 838 838 838 838 839
799 799 800 800 801 802 803 804 804 805 806 806 807 808 809 809 810 810 811 812 813 813 814 814 814 815 815 816 817 817 818 819 819 820 820 821 822 823 823 824 824 825 825 826 826 826 827 827 828 828 828 829 829 829 830 830 830 830 831 831 831 831 832 832 832 833 833 833 834 834 834 834 834 834 835 835 835 835 836 836 836 837 837 838 838 839
798 798 799 799 800 801 802 803 803 804 805 806 806 807 807 808 809 810 811 811 812 813 813 813 814 814 815 815 816 817 817 818 819 819 820 821 822 822 823 823 824 824 825 825 825 826 826 827 827 827 828 828 829 829 829 829 829 830 830 830 831 831 831 831 832 832 832 833 833 833 833 834 834 834 834 834 834 835 835 835 836 836 836 837 838 838
797 797 798 799 799 800 801 801 802 803 804 805 805 806 806 807 808 809 809 810 811 811 812 813 813 814 814 814 815 816 817 817 818 819 820 820 821 821 822 822 823 824 824 824 825 825 826 826 827 827 827 828 828 829 829 829 829 829 829 830 830 830 831 831 831 831 832 832 832 832 832 833 833 833 833 834 834 834 834 834 835 835 836 836 837 837
796 796 797 798 799 799 800 800 801 802 803 804 805 805 805 806 806 807 808 809 809 810 811 812 812 813 814 814 814 815 816 817 818 818 819 819 820 820 821 822 822 823 824 824 825 825 825 826 826 826 827 827 828 828 828 828 828 828 829 829 829 830 830 830 830 831 831 831 831 831 832 832 832 832 832 833 833 833 833 834 834 834 835 835 836 837
795 796 796 797 798 799 799 800 800 801 803 804 804 805 805 805 805 806 806 807 808 809 810 811 811 812 813 813 814 814 815 816 817 817 818 818 819 819 820 821 822 822 823 824 824 824 824 825 825 825 826 826 827 827 827 827 827 828 828 829 829 829 829 830 830 830 830 830 830 831 831 831 831 831 831 832 832 832 832 833 833 833 834 834 835 836
794 795 796 796 797 798 799 799 800 801 802 802 802 802 803 803 804 805 805 806 807 807 809 809 810 811 812 812 813 814 814 815 816 817 817 818 818 819 820 820 821 822 822 822 823 823 824 824 824 824 825 825 826 826 826 826 827 827 828 828 828 829 829 829 829 829 829 829 830 830 830 830 830 830 830 831 831 831 831 832 832 832 833 833 834 835
794 794 795 796 797 797 798 798 799 799 799 799 800 800 801 802 803 804 805 806 806 807 808 809 810 810 811 812 813 813 814 815 815 816 816 817 817 818 819 820 820 821 821 822 822 822 823 823 824 824 824 825 825 825 825 826 826 827 827 827 828 828 828 828 829 829 829 829 829 829 829 829 829 829 830 830 830 830 830 831 831 832 832 833 833 834
793 794 795 795 796 796 796 797 797 797 797 798 799 800 801 802 803 804 805 805 806 807 808 809 809 810 811 811 812 813 813 814 814 815 815 816 817 817 818 819 819 820 820 821 821 822 822 823 823 824 824 824 824 825 825 825 826 826 826 827 827 827 827 828 828 828 828 828 828 828 828 828 829 829 829 829 829 829 829 830 830 831 831 832 833 833
792 793 794 794 794 794 795 795 796 796 797 798 799 799 800 801 802 803 804 804 805 806 807 809 809 810 810 810 811 812 812 813 813 814 814 815 816 817 817 818 819 819 820 820 821 821 821 822 822 823 823 824 824 824 824 824 825 825 825 826 826 826 826 827 827 827 827 827 827 827 827 828 828 828 828 828 829 829 829 829 830 830 831 831 832 833
792 792 793 793 794 794 794 794 795 796 796 797 798 799 799 800 801 802 803 804 804 806 807 807 809 809 809 809 810 811 811 812 812 813 814 814 815 816 816 817 818 818 819 819 820 820 821 821 821 822 822 822 823 823 824 824 824 824 824 825 825 825 825 826 826 826 826 826 827 827 827 827 827 827 827 828 828 828 828 829 829 830 830 831 831 832
791 792 792 793 793 793 794 794 795 795 796 796 797 798 799 799 800 801 802 803 804 805 805 806 807 807 808 809 809 809 809 810 811 812 813 814 814 815 815 816 817 817 818 819 819 819 820 820 820 821 821 821 822 822 822 823 823 823 824 824 824 824 824 825 825 825 826 826 826 826 826 826 826 826 827 827 827 827 828 828 829 829 830 830 831 831
791 791 792 792 792 793 793 793 794 794 795 795 796 797 798 799 800 800 801 802 803 803 804 805 805 806 807 807 807 807 808 809 810 811 812 813 813 814 814 815 816 816 817 818 818 819 819 819 819 819 820 820 821 821 821 822 822 822 823 823 823 823 824 824 824 824 825 825 825 825 825 825 825 826 826 826 826 827 827 828 828 829 829 830 830 831
791 791 791 792 792 792 792 793 793 793 794 794 795 796 797 798 799 800 800 801 802 802 803 804 804 805 806 806 806 806 807 808 809 810 811 812 812 813 814 814 815 815 816 817 817 818 818 818 818 819 819 819 820 820 820 821 821 821 822 822 822 822 823 823 823 824 824 824 824 824 824 824 825 825 825 825 826 826 827 827 828 828 829 829 830 831
791 791 791 791 792 792 792 792 793 793 794 794 795 796 796 797 798 799 799 800 801 802 803 803 804 805 806 806 806 806 807 808 809 809 810 811 812 812 813 814 814 814 815 815 816 816 817 817 817 818 818 818 819 819 819 820 820 820 820 821 821 821 822 822 822 823 823 823 823 824 824 824 824 824 824 825 825 826 826 827 827 828 828 829 829 830
791 791 791 791 792 792 792 792 793 793 794 794 794 795 795 796 797 797 798 799 800 801 802 803 804 805 805 806 806 806 807 807 808 809 809 810 811 811 812 812 813 813 814 814 815 815 815 816 816 816 817 817 818 818 818 819 819 819 819 820 820 820 821 821 821 822 822 822 823 823 823 823 824 824 824 824 825 825 826 826 827 827 828 828 829 830
791 791 791 791 791 791 792 792 793 793 793 794 794 794 794 795 796 797 797 798 799 800 801 802 803 804 805 805 806 806 807 807 808 809 809 809 810 810 811 811 812 812 813 813 814 814 814 814 815 815 816 816 816 817 817 817 818 818 818 819 819 819 819 820 820 821 821 821 822 822 822 823 823 823 824 824 824 824 825 826 826 827 827 828 829 829
791 791 790 790 790 791 791 791 792 792 793 793 794 794 794 795 796 797 797 798 799 800 800 801 803 804 804 805 805 806 806 807 807 808 808 809 809 809 810 810 811 811 811 812 813 813 813 814 814 814 814 815 815 815 816 816 816 817 817 817 818 818 819 819 819 820 820 820 821 821 822 822 822 823 823 823 824 824 824 825 825 826 827 827 828 828
791 791 791 790 790 790 791 791 791 792 792 792 793 794 794 795 796 796 797 798 799 800 801 802 803 803 804 804 805 805 806 806 807 807 808 808 809 809 809 809 810 810 810 811 811 812 812 812 813 813 813 814 814 814 814 815 815 815 816 816 817 817 818 818 819 819 819 820 820 820 821 821 822 822 823 823 823 824 824 824 825 825 826 827 827 828
791 791 791 791 791 790 791 791 791 791 792 792 792 793 794 794 795 796 797 798 799 799 800 802 802 803 803 804 804 804 805 805 806 806 807 808 808 808 808 809 809 809 810 810 810 810 811 811 811 812 812 812 813 813 813 814 814 814 815 815 816 816 817 817 818 818 818 819 819 819 820 820 821 822 822 822 823 823 824 824 824 825 825 826 826 827
791 791 791 791 791 791 791 791 791 791 792 792 792 793 794 794 795 796 796 797 798 799 800 801 801 802 802 803 804 804 804 805 805 806 806 807 807 807 807 807 808 809 809 809 809 809 810 810 810 811 811 811 811 812 812 813 813 814 814 814 815 815 815 816 816 817 817 818 818 819 819 820 820 821 821 822 822 823 823 824 824 824 825 825 826 826
791 791 791 791 791 791 791 791 791 791 792 792 793 793 794 794 794 795 795 796 797 798 799 800 800 801 802 803 803 803 804 804 804 805 805 806 806 806 806 806 807 808 808 808 808 809 809 809 809 809 810 810 810 811 811 812 812 812 813 813 814 814 814 815 815 816 816 817 817 818 818 819 819 820 821 821 822 822 823 823 824 824 824 825 825 826
791 791 791 791 791 791 791 791 791 792 792 792 793 793 794 794 794 795 795 796 797 798 798 799 800 801 801 802 802 803 803 803 804 804 805 805 805 805 805 806 806 807 807 808 808 808 808 808 808 809 809 809 809 810 810 810 811 811 812 812 813 813 814 814 814 815 815 816 816 817 818 818 819 819 820 821 821 822 822 823 823 824 824 824 824 825
792 791 791 791 791 791 791 791 791 792 792 792 793 793 794 794 795 795 796 796 797 797 798 799 799 800 801 802 802 802 802 802 802 803 804 804 804 804 804 805 805 806 807 807 807 807 806 806 807 807 808 808 808 809 809 809 810 810 811 811 812 812 813 813 814 814 815 815 816 816 817 818 818 819 819 820 820 821 821 822 822 823 823 823 824 824
792 791 791 791 791 791 791 791 792 792 792 793 793 793 794 794 794 795 795 796 796 797 797 798 799 799 800 801 801 802 800 800 801 802 803 803 803 803 804 804 805 805 806 806 806 806 806 805 805 806 806 807 807 808 808 809 809 809 810 811 811 812 812 813 813 813 814 815 815 816 816 817 818 818 819 819 820 820 821 821 822 822 822 822 823 823
791 791 791 792 792 792 792 792 792 792 793 793 793 794 794 794 794 795 795 796 796 797 798 798 799 799 799 800 800 800 799 800 800 801 802 802 802 803 803 804 804 804 805 805 805 805 805 805 804 805 805 806 806 807 807 808 808 809 809 810 810 811 811 812 812 813 813 814 814 815 816 816 817 818 818 819 819 819 820 820 821 821 821 821 822 822
792 792 792 792 792 792 792 792 793 793 793 794 794 794 794 794 795 795 795 796 796 797 797 798 798 799 799 799 799 799 799 799 800 800 801 801 801 802 802 802 803 804 804 805 805 805 804 804 805 805 805 805 806 806 807 807 808 808 809 809 810 810 811 811 812 812 813 813 814 814 815 815 816 817 817 818 818 819 819 819 820 820 820 820 821 821
792 792 792 792 792 792 792 793 793 793 794 794 794 794 794 794 795 795 795 796 796 796 797 797 797 798 798 798 799 799 799 799 799 800 800 800 800 801 801 801 802 803 803 804 804 804 804 804 804 805 805 805 806 806 806 807 807 808 808 809 809 809 810 810 811 811 812 812 813 813 814 814 815 815 816 816 817 818 818 819 819 819 819 819 820 820
791 792 792 792 792 792 792 792 793 793 793 794 794 794 794 794 794 795 795 795 795 796 796 796 797 797 797 797 798 798 799 799 799 799 799 799 799 800 800 801 801 802 803 803 804 804 804 804 804 804 805 805 805 806 806 806 807 807 808 808 808 809 809 809 810 810 811 811 812 813 813 814 814 814 815 815 816 816 817 817 818 819 819 819 819 819
791 791 792 792 792 792 792 792 792 793 793 793 794 794 794 794 794 794 794 795 795 795 795 795 796 796 796 796 797 797 798 798 798 798 798 799 799 799 800 800 801 801 802 802 803 803 803 803 804 804 804 804 805 805 805 805 806 806 807 807 808 808 808 809 809 809 810 810 811 812 812 813 813 814 814 814 815 815 816 816 817 817 818 818 818 818
791 791 791 792 792 792 792 792 792 792 793 793 793 793 794 794 794 794 794 794 794 794 795 795 795 795 795 795 796 796 796 796 797 797 797 798 798 799 799 799 800 801 801 801 802 802 802 803 803 804 804 804 804 804 804 804 805 805 806 806 807 807 808 808 808 809 809 809 810 811 811 812 812 813 813 814 814 814 815 815 815 816 816 817 817 817
791 791 791 791 791 792 792 792 792 792 792 793 793 793 793 793 793 794 794 794 794 794 794 794 794 794 795 795 795 795 795 796 796 796 797 797 798 798 799 799 799 800 800 801 801 801 802 802 803 803 803 803 803 803 803 804 804 804 805 805 806 806 807 807 807 808 808 809 809 809 810 810 811 811 812 812 813 813 814 814 814 815 815 815 816 816
791 791 791 791 791 791 791 791 792 792 792 792 792 793 793 793 793 793 793 793 793 793 794 794 794 794 794 794 794 795 795 795 795 795 796 796 797 797 798 799 799 799 800 800 800 801 801 801 802 802 802 802 802 802 803 803 803 804 804 804 805 805 806 806 806 807 807 808 808 809 809 809 809 810 810 811 811 812 812 813 813 814 814 814 814 815
790 790 790 790 791 791 791 791 791 791 791 791 792 792 792 792 792 792 792 793 793 793 793 793 793 794 794 794 794 794 794 794 794 795 795 796 796 797 797 798 798 799 799 799 799 800 800 800 800 801 801 801 802 802 802 802 802 803 803 804 804 804 805 805 805 806 806 807 807 807 808 808 808 809 809 809 810 810 811 811 812 812 812 813 813 814
789 790 790 790 790 790 790 790 790 790 790 791 791 791 791 791 791 792 792 792 792 792 792 792 793 793 793 793 793 794 794 794 794 794 794 795 795 796 796 797 797 798 798 798 799 799 799 799 799 800 800 801 801 801 801 801 802 802 802 803 803 803 804 804 804 805 805 805 806 806 806 806 807 807 807 808 808 809 809 809 810 810 810 811 811 812
789 789 789 789 789 789 789 789 789 789 789 790 790 790 790 790 790 791 791 791 791 791 791 792 792 792 792 792 792 793 793 793 793 794 794 794 794 795 795 796 796 796 797 797 797 798 798 798 798 799 799 799 800 800 800 801 801 801 802 802 802 803 803 803 803 803 804 804 804 804 804 805 805 805 806 806 806 807 807 808 808 808 809 809 809 810
788 788 788 788 788 789 789 789 789 789 789 789 789 789 789 789 789 790 790 790 790 790 790 791 791 791 791 791 791 792 792 792 792 793 793 793 794 794 794 794 795 795 795 796 796 796 796 797 797 797 798 799 799 799 799 799 800 800 800 800 801 802 802 801 801 802 802 802 803 803 803 803 804 804 804 804 805 805 805 806 806 806 807 807 808 808
787 787 787 787 787 787 787 788 788 788 788 788 788 788 788 789 789 789 789 789 789 789 789 789 790 790 790 790 790 790 791 791 791 792 792 792 793 793 793 793 794 794 794 794 795 795 795 795 795 796 797 797 798 798 798 798 798 798 799 799 799 800 799 799 800 800 801 801 801 802 802 802 802 802 803 803 803 803 804 804 804 804 805 805 806 806
785 785 785 786 786 786 786 786 786 787 787 787 787 787 787 787 787 787 788 788 788 788 788 789 789 789 789 788 789 789 789 790 790 790 791 791 791 791 792 792 792 793 793 793 793 794 794 794 794 795 795 796 796 796 796 796 796 796 797 797 797 797 797 798 799 799 799 800 800 801 801 801 801 801 801 801 801 802 802 802 803 803 803 803 804 804
784 784 784 784 784 784 784 785 785 785 785 785 786 786 786 786 786 786 786 786 787 787 787 787 788 787 787 787 788 788 788 789 789 789 789 790 790 790 790 790 791 791 791 792 792 792 793 793 793 794 794 794 794 794 794 794 794 794 794 795 795 796 796 796 797 797 798 798 799 799 799 799 800 799 799 799 800 800 800 801 801 801 801 802 802 802
782 782 782 782 783 783 783 783 784 784 784 784 784 784 785 785 785 785 785 785 785 786 786 786 786 786 786 786 786 787 787 787 788 788 788 789 789 789 789 789 789 789 790 790 790 791 791 791 792 792 793 793 792 792 791 792 792 793 793 793 794 794 794 794 794 795 796 796 797 797 798 798 798 798 798 798 798 798 798 799 799 799 799 800 800 800
781 781 781 781 781 781 781 781 782 782 782 782 783 783 783 783 784 784 784 784 784 784 784 784 784 784 784 785 785 785 786 786 786 787 787 787 788 788 788 788 788 788 789 789 789 789 789 790 790 790 790 791 790 790 789 789 790 790 791 791 792 792 792 791 792 793 794 794 795 795 796 796 796 796 796 796 796 795 796 796 797 797 798 798 798 798
779 779 779 779 779 779 779 779 780 780 780 780 781 781 781 782 782 782 782 782 782 783 783 783 783 783 783 783 784 784 784 784 785 785 786 786 786 787 787 787 787 787 787 788 788 788 788 788 788 788 788 788 788 788 787 788 788 789 789 790 790 790 789 789 790 791 792 792 793 794 794 794 794 794 794 794 794 793 793 794 794 795 796 796 796 796
778 778 778 778 778 778 778 778 778 778 778 779 779 779 779 780 780 780 780 780 781 781 781 781 781 781 781 781 782 782 783 783 783 784 784 785 785 785 785 786 786 786 786 786 787 787 787 786 785 785 785 785 785 786 786 786 786 787 787 787 787 788 788 788 788 789 790 790 791 791 792 792 792 793 793 792 792 791 791 791 792 793 794 794 794 794
776 776 776 776 776 776 776 776 776 776 776 777 777 777 777 778 778 778 779 779 779 779 779 779 779 780 780 780 780 780 781 781 782 782 782 783 784 784 784 784 785 785 785 786 786 786 786 785 784 783 782 782 782 783 784 784 784 785 785 785 785 785 786 786 786 787 788 788 789 789 790 790 790 790 790 790 790 789 789 789 789 791 792 793 793 793